Content
SEND FEEDBACK

Daily
Averages
Monthly
Summary
United States of America

CHADRON, NEBRASKA


Home > North America > United States > Nebraska
Elevation: 3295 feet     Latitude: 42 50N     Longitude: 103 06W

WEATHER
 
SELECT A DAY
Number of Records: 170,366;   Date Range: 1/1/95 - 9/21/14
 
SHARE

PRINT THIS DATA

[ ← Previous Day ]
WEATHER ALMANAC - JANUARY 3, 2013
[ Next Day → ]
[ °C ]   °F
Weather ElementAverageHighLow
Temperature13.7 °F28 °F (2:53 pm)3 °F (5:53 am)
Dewpoint7.3 °F16 °F (2:53 pm) (7:00 pm)
Humidity76.7 %92 % (2:33 am)60 % (10:53 am)
Barometer30.39 in30.49 in (2:53 am)30.27 in (5:36 am)
Wind Speed6.5 mph10.4 mph (4:53 am)
Weather ElementAverage
Visibility9.9 mi
Wind DirectionSW (224.1 °)

Weather ElementTotal
Precipitation---
Heating Degree Days49.5 (Base 65)
Averaged from 29 records on January 3, 2013
WEATHER CONDITIONS BREAKOUT
WIND DIRECTION BREAKOUT
WEATHER BY HOUR - JANUARY 3, 2013
[ °C ]   °F
Local TimeTemperatureDewpointHumidityBarometerVisibilityWind DirectionWind SpeedGust SpeedPrecipitationEventsConditions
1:40 AM15.8 °F10.4 °F79 %30.32 in10.0 miCalmOvercast
1:53 AM14.0 °F10.0 °F84 %30.48 in10.0 miSW (230°)3.5 mphOvercast
2:33 AM8.6 °F6.8 °F92 %30.31 in10.0 miSW (220°)4.6 mphScattered Clouds
2:53 AM7.0 °F5.0 °F92 %30.49 in10.0 miWSW (250°)5.8 mphPartly Cloudy
3:12 AM8.6 °F6.8 °F92 %30.30 in10.0 miWSW (240°)8.1 mphMostly Cloudy
3:53 AM12.0 °F9.0 °F88 %30.47 in10.0 miWest (260°)4.6 mphOvercast
4:31 AM6.8 °F3.2 °F85 %30.29 in10.0 miWSW (240°)8.1 mphScattered Clouds
4:53 AM7.0 °F3.9 °F87 %30.48 in10.0 miWSW (240°)10.4 mphClear
5:11 AM8.6 °F6.8 °F92 %30.28 in10.0 miSW (220°)6.9 mphMostly Cloudy
5:36 AM6.8 °F3.2 °F85 %30.27 in10.0 miWSW (250°)6.9 mphScattered Clouds
5:53 AM3.0 °F0.0 °F87 %30.48 in9.0 miWSW (240°)9.2 mphClear
6:53 AM5.0 °F1.9 °F87 %30.47 in9.0 miSW (230°)4.6 mphClear
7:53 AM9.0 °F3.0 °F77 %30.45 in10.0 miWSW (240°)10.4 mphClear
8:53 AM12.0 °F3.9 °F70 %30.45 in10.0 miWSW (240°)9.2 mphClear
9:53 AM17.1 °F6.1 °F62 %30.44 in10.0 miWSW (240°)9.2 mphClear
10:53 AM19.9 °F8.1 °F60 %30.42 in10.0 miWSW (250°)8.1 mphClear
11:53 AM21.9 °F10.0 °F60 %30.39 in10.0 miWest (260°)9.2 mphClear
12:53 PM24.1 °F12.9 °F62 %30.37 in10.0 miWSW (250°)9.2 mphClear
1:53 PM26.1 °F15.1 °F63 %30.35 in10.0 miSW (220°)4.6 mphClear
2:53 PM28.0 °F16.0 °F61 %30.36 in10.0 miSW (230°)3.5 mphClear
3:53 PM27.0 °F15.1 °F61 %30.35 in10.0 miCalmClear
4:53 PM24.1 °F14.0 °F65 %30.35 in10.0 miWSW (240°)3.5 mphClear
5:53 PM15.1 °F9.0 °F77 %30.40 in10.0 miWest (260°)4.6 mphClear
6:53 PM14.0 °F9.0 °F80 %30.39 in10.0 miWSW (250°)8.1 mphClear
7:53 PM10.9 °F6.1 °F81 %30.40 in10.0 miWSW (250°)9.2 mphClear
8:53 PM10.0 °F5.0 °F80 %30.38 in10.0 miWSW (250°)8.1 mphClear
9:53 PM10.0 °F3.9 °F76 %30.36 in10.0 miWSW (240°)9.2 mphClear
10:53 PM10.9 °F3.9 °F73 %30.35 in10.0 miSW (230°)5.8 mphClear
11:53 PM12.9 °F3.9 °F67 %30.33 in10.0 miSW (230°)4.6 mphClear
Hourly data recorded from KCDR, located miles away from Chadron, Nebraska







STORIES FROM OUR PARTNERS